| time (UTC) | temp C | wind direction | speed KPH | gust KPH | rain 1hr cm | rain 24hr cm | rain mn cm | humidity % | barometer mb |
| 20260901202516 | 29 | 135 | 3.2 | 9.7 | 0.00 | 0.13 | 0.13 | 75 | 1013.9 |
| 20260901202017 | 30 | 135 | 1.6 | 9.7 | 0.00 | 0.13 | 0.13 | 75 | 1013.9 |
| 20260901201516 | 30 | 0.0 | 4.8 | 0.00 | 0.13 | 0.13 | 75 | 1013.8 | |
| 20260901201016 | 29 | 0.0 | 3.2 | 0.00 | 0.13 | 0.13 | 75 | 1013.9 | |
| 20260901200536 | 29 | 0.0 | 3.2 | 0.00 | 0.13 | 0.13 | 75 | 1013.9 | |
| 20260901200016 | 30 | 158 | 1.6 | 8.0 | 0.00 | 0.13 | 0.13 | 75 | 1013.8 |
| 20260901195516 | 30 | 158 | 1.6 | 6.4 | 0.00 | 0.13 | 0.13 | 75 | 1013.8 |
| 20260901195016 | 30 | 158 | 1.6 | 8.0 | 0.00 | 0.13 | 0.13 | 75 | 1013.7 |
| 20260901194516 | 30 | 135 | 1.6 | 4.8 | 0.00 | 0.13 | 0.13 | 75 | 1013.8 |
| 20260901194016 | 30 | 0.0 | 4.8 | 0.00 | 0.13 | 0.13 | 76 | 1013.9 | |
| 20260901193516 | 29 | 135 | 1.6 | 6.4 | 0.00 | 0.13 | 0.13 | 76 | 1014.0 |
| 20260901193016 | 29 | 113 | 1.6 | 6.4 | 0.00 | 0.13 | 0.13 | 77 | 1014.0 |
| 20260901192516 | 29 | 135 | 3.2 | 8.0 | 0.00 | 0.13 | 0.13 | 78 | 1014.0 |
| 20260901192016 | 29 | 135 | 3.2 | 9.7 | 0.00 | 0.13 | 0.13 | 79 | 1014.0 |
| 20260901191516 | 28 | 293 | 1.6 | 9.7 | 0.00 | 0.13 | 0.13 | 80 | 1014.0 |
| 20260901191036 | 28 | 0.0 | 3.2 | 0.00 | 0.13 | 0.13 | 81 | 1014.1 | |
| 20260901190516 | 28 | 225 | 1.6 | 4.8 | 0.00 | 0.13 | 0.13 | 81 | 1014.1 |
| 20260901190016 | 28 | 0.0 | 1.6 | 0.00 | 0.13 | 0.13 | 82 | 1014.1 | |
| 20260901185516 | 27 | 248 | 3.2 | 8.0 | 0.00 | 0.13 | 0.13 | 81 | 1014.2 |
| 20260901185017 | 27 | 225 | 1.6 | 6.4 | 0.00 | 0.13 | 0.13 | 82 | 1014.2 |
| 20260901184516 | 27 | 225 | 1.6 | 6.4 | 0.00 | 0.13 | 0.13 | 82 | 1014.2 |
| 20260901184036 | 27 | 0.0 | 3.2 | 0.00 | 0.13 | 0.13 | 82 | 1014.3 | |
| 20260901183517 | 27 | 0.0 | 3.2 | 0.00 | 0.13 | 0.13 | 82 | 1014.3 | |
| 20260901183016 | 27 | 248 | 1.6 | 6.4 | 0.00 | 0.13 | 0.13 | 82 | 1014.3 |
| 20260901182516 | 27 | 135 | 1.6 | 8.0 | 0.00 | 0.13 | 0.13 | 83 | 1014.2 |
| 20260901182017 | 27 | 225 | 1.6 | 11.3 | 0.00 | 0.13 | 0.13 | 84 | 1014.2 |
| 20260901181536 | 27 | 248 | 3.2 | 11.3 | 0.00 | 0.13 | 0.13 | 85 | 1014.2 |
| 20260901181016 | 27 | 225 | 6.4 | 16.1 | 0.00 | 0.13 | 0.13 | 86 | 1014.1 |
| 20260901180516 | 27 | 225 | 8.0 | 17.7 | 0.00 | 0.13 | 0.13 | 86 | 1014.1 |
| 20260901180016 | 27 | 203 | 3.2 | 11.3 | 0.00 | 0.13 | 0.13 | 87 | 1014.1 |
| 20260901175537 | 26 | 225 | 1.6 | 8.0 | 0.00 | 0.13 | 0.13 | 88 | 1014.1 |
| 20260901175017 | 26 | 248 | 3.2 | 14.5 | 0.00 | 0.13 | 0.13 | 90 | 1014.1 |
| 20260901174557 | 26 | 248 | 3.2 | 11.3 | 0.00 | 0.13 | 0.13 | 90 | 1013.9 |
| 20260901174017 | 26 | 225 | 4.8 | 14.5 | 0.00 | 0.13 | 0.13 | 91 | 1014.1 |
| 20260901173536 | 25 | 0.0 | 3.2 | 0.00 | 0.13 | 0.13 | 92 | 1014.5 | |
| 20260901173016 | 25 | 0.0 | 4.8 | 0.00 | 0.13 | 0.13 | 91 | 1014.7 | |
| 20260901172516 | 25 | 0.0 | 3.2 | 0.00 | 0.13 | 0.13 | 92 | 1014.9 | |
| 20260901172017 | 25 | 0.0 | 3.2 | 0.00 | 0.13 | 0.13 | 91 | 1015.0 | |
| 20260901171517 | 25 | 0.0 | 3.2 | 0.00 | 0.13 | 0.13 | 91 | 1014.9 | |
| 20260901171016 | 25 | 225 | 1.6 | 9.7 | 0.00 | 0.13 | 0.13 | 91 | 1015.0 |
| 20260901170537 | 25 | 0.0 | 4.8 | 0.03 | 0.13 | 0.13 | 91 | 1015.0 | |
| 20260901170036 | 25 | 0.0 | 8.0 | 0.03 | 0.13 | 0.13 | 91 | 1014.7 | |
| 20260901165536 | 25 | 0.0 | 0.0 | 0.05 | 0.13 | 0.13 | 91 | 1014.9 | |
| 20260901165016 | 25 | 0.0 | 3.2 | 0.05 | 0.13 | 0.13 | 91 | 1014.9 | |
| 20260901164516 | 25 | 225 | 1.6 | 4.8 | 0.05 | 0.13 | 0.13 | 91 | 1015.0 |
| 20260901164016 | 25 | 225 | 1.6 | 6.4 | 0.05 | 0.13 | 0.13 | 90 | 1015.2 |
| 20260901163516 | 25 | 225 | 4.8 | 8.0 | 0.05 | 0.13 | 0.13 | 90 | 1015.2 |
| 20260901163016 | 25 | 225 | 3.2 | 9.7 | 0.08 | 0.13 | 0.13 | 90 | 1015.4 |
| 20260901162516 | 25 | 0.0 | 3.2 | 0.08 | 0.13 | 0.13 | 90 | 1015.5 | |
| 20260901162016 | 25 | 0.0 | 1.6 | 0.08 | 0.13 | 0.13 | 90 | 1015.4 | |
| 20260901161536 | 25 | 0.0 | 1.6 | 0.08 | 0.13 | 0.13 | 90 | 1015.6 | |
| 20260901161016 | 25 | 0.0 | 0.0 | 0.08 | 0.13 | 0.13 | 90 | 1015.8 | |
| 20260901160535 | 25 | 0.0 | 1.6 | 0.05 | 0.10 | 0.10 | 90 | 1015.9 | |
| 20260901160055 | 25 | 0.0 | 1.6 | 0.05 | 0.10 | 0.10 | 90 | 1015.9 | |
| 20260901155517 | 25 | 0.0 | 1.6 | 0.03 | 0.08 | 0.08 | 90 | 1016.1 | |
| 20260901155016 | 25 | 0.0 | 3.2 | 0.03 | 0.08 | 0.08 | 90 | 1016.1 | |
| 20260901154517 | 25 | 0.0 | 3.2 | 0.03 | 0.08 | 0.08 | 90 | 1016.3 | |
| 20260901154016 | 25 | 293 | 1.6 | 4.8 | 0.03 | 0.08 | 0.08 | 90 | 1016.4 |
| 20260901153516 | 25 | 293 | 1.6 | 3.2 | 0.03 | 0.08 | 0.08 | 90 | 1016.3 |
| 20260901153016 | 25 | 293 | 1.6 | 3.2 | 0.00 | 0.05 | 0.05 | 90 | 1016.4 |
| 20260901152517 | 25 | 0.0 | 3.2 | 0.00 | 0.05 | 0.05 | 90 | 1016.1 | |
| 20260901152016 | 25 | 180 | 1.6 | 3.2 | 0.00 | 0.05 | 0.05 | 90 | 1016.2 |
| 20260901151535 | 25 | 0.0 | 3.2 | 0.00 | 0.05 | 0.05 | 90 | 1016.1 | |
| 20260901151159 | 25 | 0.0 | 3.2 | 0.00 | 0.05 | 0.05 | 90 | 1016.2 | |
| 20260901150517 | 25 | 0.0 | 3.2 | 0.00 | 0.05 | 0.05 | 90 | 1016.4 | |
| 20260901150036 | 25 | 0.0 | 1.6 | 0.00 | 0.05 | 0.05 | 91 | 1016.3 | |
| 20260901145517 | 25 | 0.0 | 3.2 | 0.00 | 0.05 | 0.05 | 91 | 1016.2 | |
| 20260901145015 | 25 | 180 | 1.6 | 4.8 | 0.00 | 0.05 | 0.05 | 91 | 1016.1 |
| 20260901144515 | 25 | 0.0 | 3.2 | 0.00 | 0.05 | 0.05 | 91 | 1016.2 | |
| 20260901144016 | 25 | 0.0 | 3.2 | 0.00 | 0.05 | 0.05 | 91 | 1016.2 | |
| 20260901143515 | 25 | 0.0 | 4.8 | 0.00 | 0.05 | 0.05 | 91 | 1016.2 | |
| 20260901143015 | 25 | 0.0 | 1.6 | 0.00 | 0.05 | 0.05 | 92 | 1016.1 | |
| 20260901142516 | 25 | 270 | 1.6 | 3.2 | 0.00 | 0.05 | 0.05 | 92 | 1016.1 |
| 20260901142017 | 24 | 0.0 | 0.0 | 0.00 | 0.05 | 0.05 | 92 | 1015.9 | |
| 20260901141515 | 24 | 0.0 | 1.6 | 0.00 | 0.05 | 0.05 | 92 | 1015.9 | |
| 20260901141015 | 24 | 135 | 1.6 | 6.4 | 0.00 | 0.05 | 0.05 | 92 | 1015.7 |
| 20260901140536 | 24 | 135 | 1.6 | 4.8 | 0.00 | 0.05 | 0.05 | 92 | 1015.7 |
| 20260901140016 | 24 | 225 | 1.6 | 4.8 | 0.00 | 0.05 | 0.05 | 92 | 1015.7 |
| 20260901135535 | 24 | 0.0 | 3.2 | 0.03 | 0.05 | 0.05 | 92 | 1015.9 | |
| 20260901135015 | 24 | 248 | 1.6 | 4.8 | 0.03 | 0.05 | 0.05 | 92 | 1016.0 |
| 20260901134515 | 24 | 225 | 1.6 | 6.4 | 0.03 | 0.05 | 0.05 | 93 | 1015.9 |
| 20260901134015 | 24 | 203 | 1.6 | 6.4 | 0.03 | 0.05 | 0.05 | 93 | 1015.9 |
| 20260901133516 | 23 | 270 | 1.6 | 6.4 | 0.03 | 0.05 | 0.05 | 93 | 1015.8 |
| 20260901133015 | 24 | 225 | 1.6 | 6.4 | 0.03 | 0.05 | 0.05 | 93 | 1015.8 |
| 20260901132516 | 23 | 225 | 1.6 | 6.4 | 0.03 | 0.05 | 0.05 | 93 | 1015.9 |
| 20260901132017 | 23 | 225 | 4.8 | 9.7 | 0.03 | 0.05 | 0.05 | 93 | 1015.9 |
| 20260901131515 | 23 | 248 | 4.8 | 11.3 | 0.03 | 0.05 | 0.05 | 93 | 1016.0 |
| 20260901131037 | 23 | 203 | 1.6 | 6.4 | 0.03 | 0.05 | 0.05 | 93 | 1016.0 |
| 20260901130515 | 23 | 225 | 4.8 | 14.5 | 0.03 | 0.05 | 0.05 | 93 | 1015.9 |
| 20260901130035 | 23 | 203 | 4.8 | 8.0 | 0.03 | 0.05 | 0.05 | 93 | 1015.9 |
| 20260901125517 | 23 | 293 | 1.6 | 6.4 | 0.00 | 0.03 | 0.03 | 93 | 1016.0 |
| 20260901125015 | 23 | 0.0 | 3.2 | 0.00 | 0.03 | 0.03 | 93 | 1015.9 | |
| 20260901124537 | 23 | 248 | 1.6 | 6.4 | 0.00 | 0.03 | 0.03 | 93 | 1016.0 |
| 20260901124015 | 23 | 248 | 1.6 | 8.0 | 0.00 | 0.03 | 0.03 | 93 | 1016.0 |
| 20260901123517 | 23 | 0.0 | 3.2 | 0.00 | 0.03 | 0.03 | 93 | 1015.9 | |
| 20260901123017 | 23 | 0.0 | 1.6 | 0.00 | 0.03 | 0.03 | 93 | 1016.0 | |
| 20260901122517 | 23 | 0.0 | 4.8 | 0.00 | 0.03 | 0.03 | 93 | 1016.1 | |
| 20260901122017 | 23 | 293 | 1.6 | 4.8 | 0.00 | 0.03 | 0.03 | 93 | 1016.0 |
| 20260901121517 | 23 | 0.0 | 1.6 | 0.00 | 0.03 | 0.03 | 93 | 1016.0 | |
| 20260901121017 | 23 | 0.0 | 3.2 | 0.00 | 0.03 | 0.03 | 92 | 1016.2 | |
| 20260901120517 | 23 | 0.0 | 0.0 | 0.00 | 0.03 | 0.03 | 92 | 1016.3 | |
| 20260901120017 | 23 | 0.0 | 0.0 | 0.00 | 0.03 | 0.03 | 92 | 1016.3 | |
| 20260901115517 | 23 | 0.0 | 0.0 | 0.00 | 0.03 | 0.03 | 92 | 1016.1 | |
| 20260901115017 | 23 | 0.0 | 3.2 | 0.00 | 0.03 | 0.03 | 92 | 1016.0 | |
| 20260901114540 | 23 | 0.0 | 3.2 | 0.00 | 0.05 | 0.03 | 92 | 1016.1 | |
| 20260901114018 | 23 | 0.0 | 0.0 | 0.00 | 0.05 | 0.03 | 92 | 1016.1 | |
| 20260901113517 | 23 | 0.0 | 1.6 | 0.00 | 0.05 | 0.03 | 92 | 1016.2 | |
| 20260901113017 | 23 | 0.0 | 4.8 | 0.00 | 0.05 | 0.03 | 92 | 1016.3 | |
| 20260901112517 | 23 | 0.0 | 4.8 | 0.00 | 0.05 | 0.03 | 92 | 1016.3 | |
| 20260901112017 | 23 | 225 | 3.2 | 8.0 | 0.00 | 0.05 | 0.03 | 92 | 1016.4 |
| 20260901111517 | 23 | 248 | 3.2 | 6.4 | 0.00 | 0.05 | 0.03 | 92 | 1016.5 |
| 20260901111018 | 23 | 248 | 4.8 | 9.7 | 0.00 | 0.05 | 0.03 | 92 | 1016.4 |
| 20260901110517 | 23 | 248 | 3.2 | 6.4 | 0.00 | 0.05 | 0.03 | 92 | 1016.4 |
| 20260901110017 | 22 | 225 | 1.6 | 6.4 | 0.00 | 0.05 | 0.03 | 92 | 1016.4 |
| 20260901105517 | 22 | 225 | 1.6 | 6.4 | 0.00 | 0.05 | 0.03 | 92 | 1016.3 |
| 20260901105017 | 22 | 0.0 | 3.2 | 0.00 | 0.05 | 0.03 | 92 | 1016.3 | |
| 20260901104517 | 22 | 0.0 | 3.2 | 0.00 | 0.05 | 0.03 | 92 | 1016.2 | |
| 20260901104037 | 22 | 0.0 | 3.2 | 0.00 | 0.05 | 0.03 | 92 | 1016.1 | |
| 20260901103518 | 22 | 0.0 | 3.2 | 0.00 | 0.05 | 0.03 | 92 | 1016.2 | |
| 20260901103120 | 22 | 225 | 1.6 | 4.8 | 0.00 | 0.05 | 0.03 | 92 | 1016.1 |
| 20260901102536 | 22 | 225 | 1.6 | 4.8 | 0.00 | 0.05 | 0.03 | 92 | 1016.1 |
| 20260901102018 | 22 | 225 | 3.2 | 6.4 | 0.00 | 0.05 | 0.03 | 92 | 1016.1 |
| 20260901101517 | 22 | 225 | 1.6 | 4.8 | 0.00 | 0.05 | 0.03 | 92 | 1016.1 |
| 20260901101017 | 22 | 248 | 1.6 | 4.8 | 0.00 | 0.05 | 0.03 | 92 | 1016.1 |
| 20260901100518 | 22 | 248 | 3.2 | 6.4 | 0.00 | 0.05 | 0.03 | 92 | 1016.1 |
| 20260901100018 | 22 | 0.0 | 1.6 | 0.00 | 0.05 | 0.03 | 92 | 1016.1 | |
| 20260901095518 | 22 | 248 | 1.6 | 6.4 | 0.00 | 0.05 | 0.03 | 92 | 1015.9 |
| 20260901095018 | 22 | 270 | 3.2 | 11.3 | 0.00 | 0.05 | 0.03 | 92 | 1016.0 |
| 20260901094517 | 22 | 270 | 3.2 | 9.7 | 0.00 | 0.05 | 0.03 | 92 | 1016.0 |
| 20260901094018 | 22 | 225 | 3.2 | 8.0 | 0.00 | 0.05 | 0.03 | 92 | 1015.9 |
| 20260901093517 | 22 | 248 | 3.2 | 6.4 | 0.00 | 0.05 | 0.03 | 92 | 1015.9 |
| 20260901093037 | 22 | 225 | 3.2 | 6.4 | 0.00 | 0.05 | 0.03 | 92 | 1016.0 |
| 20260901092518 | 22 | 248 | 3.2 | 6.4 | 0.00 | 0.05 | 0.03 | 92 | 1016.1 |
| 20260901092017 | 22 | 203 | 1.6 | 6.4 | 0.00 | 0.05 | 0.03 | 92 | 1016.1 |
| 20260901091517 | 22 | 248 | 3.2 | 6.4 | 0.00 | 0.05 | 0.03 | 92 | 1016.2 |
| 20260901091018 | 22 | 225 | 3.2 | 9.7 | 0.00 | 0.05 | 0.03 | 92 | 1016.2 |
| 20260901090518 | 22 | 248 | 3.2 | 6.4 | 0.00 | 0.05 | 0.03 | 92 | 1016.3 |
| 20260901090017 | 22 | 225 | 3.2 | 6.4 | 0.00 | 0.05 | 0.03 | 92 | 1016.3 |
| 20260901085517 | 22 | 248 | 3.2 | 6.4 | 0.00 | 0.05 | 0.03 | 91 | 1016.4 |
| 20260901085037 | 22 | 225 | 3.2 | 6.4 | 0.00 | 0.05 | 0.03 | 91 | 1016.4 |
| 20260901084537 | 22 | 225 | 6.4 | 9.7 | 0.00 | 0.05 | 0.03 | 91 | 1016.4 |
| 20260901084018 | 22 | 225 | 3.2 | 8.0 | 0.00 | 0.05 | 0.03 | 91 | 1016.5 |
| 20260901083537 | 22 | 225 | 3.2 | 8.0 | 0.00 | 0.05 | 0.03 | 91 | 1016.5 |
| 20260901083017 | 22 | 248 | 3.2 | 6.4 | 0.00 | 0.05 | 0.03 | 91 | 1016.5 |
| 20260901082518 | 22 | 248 | 1.6 | 6.4 | 0.00 | 0.05 | 0.03 | 91 | 1016.5 |
| 20260901082017 | 22 | 270 | 1.6 | 4.8 | 0.00 | 0.05 | 0.03 | 91 | 1016.5 |
| 20260901081517 | 22 | 270 | 3.2 | 9.7 | 0.00 | 0.05 | 0.03 | 91 | 1016.6 |
| 20260901081038 | 22 | 270 | 3.2 | 11.3 | 0.00 | 0.05 | 0.03 | 91 | 1016.5 |
| 20260901080517 | 22 | 270 | 4.8 | 11.3 | 0.00 | 0.05 | 0.03 | 91 | 1016.6 |
| 20260901080017 | 22 | 270 | 1.6 | 6.4 | 0.00 | 0.05 | 0.03 | 91 | 1016.5 |
| 20260901075517 | 22 | 225 | 1.6 | 4.8 | 0.00 | 0.05 | 0.03 | 91 | 1016.4 |
| 20260901075017 | 22 | 225 | 3.2 | 8.0 | 0.00 | 0.05 | 0.03 | 91 | 1016.4 |
| 20260901074517 | 22 | 293 | 1.6 | 6.4 | 0.00 | 0.05 | 0.03 | 91 | 1016.4 |
| 20260901074018 | 22 | 248 | 4.8 | 8.0 | 0.00 | 0.05 | 0.03 | 91 | 1016.5 |
| 20260901073517 | 22 | 225 | 4.8 | 12.9 | 0.00 | 0.05 | 0.03 | 91 | 1016.5 |
| 20260901073018 | 22 | 225 | 3.2 | 9.7 | 0.00 | 0.05 | 0.03 | 91 | 1016.4 |
| 20260901072517 | 22 | 225 | 4.8 | 12.9 | 0.00 | 0.05 | 0.03 | 91 | 1016.5 |
| 20260901072018 | 22 | 225 | 3.2 | 8.0 | 0.00 | 0.05 | 0.03 | 91 | 1016.6 |
| 20260901071517 | 22 | 248 | 4.8 | 9.7 | 0.00 | 0.05 | 0.03 | 91 | 1016.7 |
| 20260901071017 | 22 | 225 | 4.8 | 14.5 | 0.00 | 0.05 | 0.03 | 90 | 1016.7 |
| 20260901070517 | 22 | 225 | 3.2 | 8.0 | 0.00 | 0.05 | 0.03 | 90 | 1016.8 |
| 20260901070017 | 22 | 225 | 1.6 | 6.4 | 0.00 | 0.05 | 0.03 | 90 | 1016.8 |
| 20260901065517 | 22 | 225 | 3.2 | 8.0 | 0.00 | 0.05 | 0.03 | 90 | 1016.7 |
| 20260901065017 | 22 | 225 | 1.6 | 8.0 | 0.00 | 0.05 | 0.03 | 90 | 1016.8 |
| 20260901064518 | 22 | 225 | 1.6 | 6.4 | 0.00 | 0.05 | 0.03 | 90 | 1016.9 |
| 20260901064017 | 22 | 225 | 4.8 | 9.7 | 0.00 | 0.05 | 0.03 | 90 | 1017.0 |
| 20260901063517 | 22 | 225 | 1.6 | 8.0 | 0.00 | 0.05 | 0.03 | 90 | 1017.0 |
| 20260901063018 | 22 | 225 | 1.6 | 8.0 | 0.00 | 0.05 | 0.03 | 90 | 1017.0 |
| 20260901062517 | 22 | 225 | 3.2 | 11.3 | 0.00 | 0.05 | 0.03 | 90 | 1017.0 |
| 20260901062017 | 22 | 225 | 1.6 | 8.0 | 0.00 | 0.05 | 0.03 | 90 | 1017.1 |
| 20260901061516 | 22 | 225 | 3.2 | 6.4 | 0.00 | 0.05 | 0.03 | 90 | 1017.2 |
| 20260901061018 | 22 | 225 | 3.2 | 9.7 | 0.00 | 0.05 | 0.03 | 90 | 1017.2 |
| 20260901060537 | 22 | 225 | 1.6 | 4.8 | 0.00 | 0.05 | 0.03 | 89 | 1017.2 |
| 20260901060017 | 22 | 225 | 3.2 | 8.0 | 0.03 | 0.05 | 0.03 | 89 | 1017.3 |
| 20260901055517 | 22 | 0.0 | 4.8 | 0.03 | 0.05 | 0.03 | 89 | 1017.2 | |
| 20260901055017 | 22 | 225 | 3.2 | 9.7 | 0.03 | 0.05 | 0.03 | 89 | 1017.4 |
| 20260901054517 | 22 | 225 | 4.8 | 9.7 | 0.03 | 0.05 | 0.03 | 89 | 1017.3 |
| 20260901054037 | 22 | 225 | 3.2 | 9.7 | 0.03 | 0.05 | 0.03 | 88 | 1017.4 |
| 20260901053517 | 22 | 225 | 3.2 | 9.7 | 0.03 | 0.05 | 0.03 | 88 | 1017.5 |
| 20260901053017 | 22 | 225 | 3.2 | 6.4 | 0.03 | 0.05 | 0.03 | 88 | 1017.6 |
| 20260901052516 | 22 | 248 | 3.2 | 6.4 | 0.03 | 0.05 | 0.03 | 88 | 1017.7 |
| 20260901052017 | 22 | 225 | 3.2 | 8.0 | 0.03 | 0.05 | 0.03 | 87 | 1017.6 |
| 20260901051517 | 22 | 248 | 3.2 | 8.0 | 0.03 | 0.05 | 0.03 | 87 | 1017.6 |
| 20260901051016 | 23 | 225 | 3.2 | 8.0 | 0.03 | 0.05 | 0.03 | 86 | 1017.7 |
| 20260901050517 | 23 | 225 | 3.2 | 9.7 | 0.03 | 0.05 | 0.03 | 86 | 1017.7 |
| 20260901050017 | 23 | 225 | 3.2 | 8.0 | 0.00 | 0.03 | 0.00 | 86 | 1017.6 |
| 20260901045518 | 22 | 225 | 3.2 | 8.0 | 0.00 | 0.03 | 0.00 | 85 | 1017.8 |
| 20260901045037 | 22 | 225 | 1.6 | 4.8 | 0.00 | 0.03 | 0.00 | 85 | 1017.7 |
| 20260901044536 | 23 | 225 | 3.2 | 12.9 | 0.00 | 0.03 | 0.00 | 85 | 1017.8 |
| 20260901044016 | 23 | 225 | 3.2 | 9.7 | 0.00 | 0.03 | 0.00 | 85 | 1017.7 |
| 20260901043537 | 23 | 225 | 3.2 | 6.4 | 0.00 | 0.03 | 0.00 | 85 | 1017.8 |
| 20260901043016 | 23 | 225 | 1.6 | 6.4 | 0.00 | 0.03 | 0.00 | 85 | 1017.8 |
| 20260901042517 | 23 | 248 | 1.6 | 8.0 | 0.00 | 0.03 | 0.00 | 85 | 1017.8 |
| 20260901042017 | 23 | 225 | 1.6 | 11.3 | 0.00 | 0.03 | 0.00 | 85 | 1017.9 |
| 20260901041517 | 23 | 225 | 3.2 | 8.0 | 0.00 | 0.03 | 0.00 | 85 | 1018.0 |
| 20260901041016 | 23 | 225 | 1.6 | 6.4 | 0.00 | 0.03 | 0.00 | 85 | 1017.9 |
| 20260901040516 | 23 | 248 | 1.6 | 8.0 | 0.00 | 0.03 | 0.00 | 85 | 1017.9 |
| 20260901040017 | 23 | 0.0 | 4.8 | 0.00 | 0.03 | 0.03 | 85 | 1017.8 | |
| 20260901035517 | 23 | 248 | 1.6 | 6.4 | 0.00 | 0.03 | 0.03 | 85 | 1017.8 |
| 20260901035017 | 23 | 0.0 | 4.8 | 0.00 | 0.03 | 0.03 | 85 | 1017.8 | |
| 20260901034518 | 23 | 203 | 1.6 | 6.4 | 0.00 | 0.03 | 0.03 | 85 | 1017.9 |
| 20260901034018 | 23 | 0.0 | 4.8 | 0.00 | 0.03 | 0.03 | 85 | 1017.9 | |
| 20260901033517 | 23 | 225 | 1.6 | 6.4 | 0.00 | 0.03 | 0.03 | 85 | 1018.0 |
| 20260901033017 | 23 | 225 | 1.6 | 4.8 | 0.00 | 0.03 | 0.03 | 85 | 1018.0 |
| 20260901032517 | 23 | 203 | 1.6 | 8.0 | 0.00 | 0.03 | 0.03 | 84 | 1018.0 |
| 20260901032017 | 23 | 203 | 1.6 | 6.4 | 0.00 | 0.03 | 0.03 | 84 | 1018.1 |
| 20260901031517 | 23 | 225 | 3.2 | 8.0 | 0.00 | 0.03 | 0.03 | 84 | 1018.0 |
| 20260901031017 | 23 | 158 | 1.6 | 4.8 | 0.00 | 0.03 | 0.03 | 84 | 1018.1 |
| 20260901030517 | 23 | 158 | 1.6 | 6.4 | 0.00 | 0.03 | 0.03 | 84 | 1018.1 |
| 20260901030057 | 23 | 248 | 1.6 | 11.3 | 0.00 | 0.03 | 0.03 | 84 | 1018.3 |
| 20260901025517 | 23 | 0.0 | 4.8 | 0.00 | 0.03 | 0.03 | 84 | 1018.4 | |
| 20260901025017 | 23 | 225 | 3.2 | 8.0 | 0.00 | 0.03 | 0.03 | 84 | 1018.4 |
| 20260901024517 | 23 | 225 | 1.6 | 8.0 | 0.00 | 0.03 | 0.03 | 84 | 1018.5 |
| 20260901024018 | 23 | 225 | 1.6 | 6.4 | 0.00 | 0.03 | 0.03 | 84 | 1018.5 |
| 20260901023517 | 23 | 225 | 1.6 | 6.4 | 0.00 | 0.03 | 0.03 | 84 | 1018.6 |
| 20260901023017 | 23 | 0.0 | 4.8 | 0.00 | 0.03 | 0.03 | 84 | 1018.7 | |
| 20260901022518 | 23 | 0.0 | 1.6 | 0.00 | 0.03 | 0.03 | 84 | 1018.6 | |
| 20260901022017 | 23 | 158 | 1.6 | 6.4 | 0.00 | 0.03 | 0.03 | 84 | 1018.5 |
| 20260901021518 | 23 | 270 | 1.6 | 3.2 | 0.00 | 0.03 | 0.03 | 84 | 1018.6 |
| 20260901021017 | 23 | 158 | 1.6 | 6.4 | 0.00 | 0.03 | 0.03 | 84 | 1018.5 |
| 20260901020517 | 23 | 135 | 1.6 | 6.4 | 0.00 | 0.03 | 0.03 | 84 | 1018.5 |
| 20260901020017 | 23 | 0.0 | 3.2 | 0.00 | 0.03 | 0.03 | 84 | 1018.6 | |
| 20260901015517 | 23 | 180 | 1.6 | 3.2 | 0.00 | 0.03 | 0.03 | 83 | 1018.6 |
| 20260901015017 | 23 | 135 | 1.6 | 8.0 | 0.00 | 0.05 | 0.03 | 83 | 1018.6 |
| 20260901014517 | 23 | 135 | 1.6 | 4.8 | 0.00 | 0.05 | 0.03 | 83 | 1018.7 |
| 20260901014017 | 23 | 158 | 1.6 | 4.8 | 0.00 | 0.05 | 0.03 | 83 | 1018.7 |
| 20260901013518 | 23 | 158 | 1.6 | 8.0 | 0.00 | 0.05 | 0.03 | 83 | 1018.7 |
| 20260901013037 | 23 | 135 | 1.6 | 4.8 | 0.00 | 0.05 | 0.03 | 83 | 1018.8 |
| 20260901012517 | 23 | 135 | 1.6 | 6.4 | 0.00 | 0.05 | 0.03 | 83 | 1018.8 |
| 20260901012017 | 23 | 135 | 1.6 | 8.0 | 0.00 | 0.05 | 0.03 | 83 | 1018.8 |
| 20260901011517 | 23 | 158 | 1.6 | 8.0 | 0.00 | 0.05 | 0.03 | 82 | 1018.8 |
| 20260901011018 | 23 | 180 | 1.6 | 8.0 | 0.00 | 0.05 | 0.03 | 82 | 1018.7 |
| 20260901010517 | 23 | 135 | 1.6 | 6.4 | 0.00 | 0.05 | 0.03 | 82 | 1018.6 |
| 20260901010057 | 23 | 135 | 3.2 | 12.9 | 0.00 | 0.05 | 0.03 | 82 | 1018.6 |
| 20260901005518 | 23 | 158 | 4.8 | 11.3 | 0.00 | 0.05 | 0.03 | 82 | 1018.5 |
| 20260901005017 | 23 | 158 | 3.2 | 8.0 | 0.00 | 0.05 | 0.03 | 82 | 1018.4 |
| 20260901004517 | 23 | 135 | 4.8 | 11.3 | 0.00 | 0.05 | 0.03 | 81 | 1018.5 |
| 20260901004017 | 23 | 158 | 3.2 | 9.7 | 0.00 | 0.05 | 0.03 | 81 | 1018.4 |
| 20260901003516 | 23 | 135 | 3.2 | 14.5 | 0.00 | 0.05 | 0.03 | 81 | 1018.4 |
| 20260901003018 | 23 | 158 | 1.6 | 6.4 | 0.00 | 0.05 | 0.03 | 81 | 1018.4 |
| 20260901002517 | 23 | 135 | 4.8 | 11.3 | 0.00 | 0.05 | 0.03 | 81 | 1018.4 |
| 20260901002017 | 23 | 135 | 3.2 | 6.4 | 0.00 | 0.05 | 0.03 | 80 | 1018.4 |
| 20260901001557 | 23 | 135 | 1.6 | 8.0 | 0.00 | 0.05 | 0.03 | 80 | 1018.5 |
| 20260901001017 | 23 | 158 | 1.6 | 6.4 | 0.00 | 0.05 | 0.03 | 80 | 1018.5 |
| 20260901000516 | 23 | 0.0 | 4.8 | 0.00 | 0.05 | 0.03 | 80 | 1018.4 | |
| 20260901000017 | 23 | 158 | 1.6 | 9.7 | 0.00 | 0.05 | 0.03 | 80 | 1018.4 |
| 20260831235517 | 23 | 135 | 3.2 | 11.3 | 0.00 | 0.05 | 0.03 | 80 | 1018.4 |
| 20260831235016 | 23 | 135 | 3.2 | 6.4 | 0.00 | 0.05 | 0.03 | 80 | 1018.4 |
| 20260831234518 | 23 | 135 | 3.2 | 6.4 | 0.00 | 0.05 | 0.03 | 79 | 1018.5 |
| 20260831234018 | 23 | 135 | 1.6 | 8.0 | 0.00 | 0.05 | 0.03 | 79 | 1018.4 |
| 20260831233537 | 23 | 135 | 1.6 | 8.0 | 0.00 | 0.05 | 0.03 | 78 | 1018.5 |
| 20260831233017 | 23 | 135 | 1.6 | 6.4 | 0.00 | 0.05 | 0.03 | 78 | 1018.5 |
| 20260831232517 | 23 | 135 | 3.2 | 6.4 | 0.00 | 0.05 | 0.03 | 78 | 1018.5 |
| 20260831232017 | 23 | 113 | 3.2 | 8.0 | 0.00 | 0.05 | 0.03 | 78 | 1018.4 |
| 20260831231518 | 23 | 158 | 1.6 | 3.2 | 0.00 | 0.05 | 0.03 | 77 | 1018.5 |
| 20260831231038 | 23 | 135 | 1.6 | 8.0 | 0.00 | 0.05 | 0.03 | 77 | 1018.5 |
| 20260831230517 | 23 | 113 | 3.2 | 9.7 | 0.00 | 0.05 | 0.03 | 76 | 1018.5 |
| 20260831230016 | 24 | 135 | 1.6 | 4.8 | 0.00 | 0.05 | 0.03 | 76 | 1018.5 |
| 20260831225537 | 24 | 135 | 1.6 | 4.8 | 0.00 | 0.05 | 0.03 | 76 | 1018.5 |
| 20260831225017 | 24 | 135 | 1.6 | 6.4 | 0.00 | 0.05 | 0.03 | 76 | 1018.6 |
| 20260831224538 | 24 | 135 | 3.2 | 6.4 | 0.00 | 0.05 | 0.03 | 75 | 1018.5 |
| 20260831224018 | 24 | 158 | 3.2 | 6.4 | 0.00 | 0.05 | 0.03 | 74 | 1018.5 |
| 20260831223518 | 24 | 135 | 4.8 | 8.0 | 0.00 | 0.05 | 0.03 | 74 | 1018.5 |
| 20260831223016 | 24 | 135 | 3.2 | 9.7 | 0.00 | 0.05 | 0.03 | 74 | 1018.5 |
| 20260831222517 | 24 | 135 | 1.6 | 9.7 | 0.00 | 0.05 | 0.03 | 74 | 1018.5 |
| 20260831222017 | 24 | 135 | 1.6 | 6.4 | 0.00 | 0.05 | 0.03 | 74 | 1018.5 |
| 20260831221518 | 25 | 135 | 1.6 | 6.4 | 0.00 | 0.05 | 0.03 | 74 | 1018.6 |
| 20260831221018 | 25 | 135 | 3.2 | 8.0 | 0.00 | 0.05 | 0.03 | 73 | 1018.6 |
| 20260831220518 | 25 | 203 | 4.8 | 8.0 | 0.00 | 0.05 | 0.03 | 73 | 1018.7 |
| 20260831220016 | 25 | 203 | 1.6 | 4.8 | 0.00 | 0.05 | 0.03 | 73 | 1018.7 |
| 20260831215516 | 25 | 225 | 1.6 | 8.0 | 0.00 | 0.05 | 0.03 | 73 | 1018.7 |
| 20260831215036 | 25 | 180 | 4.8 | 11.3 | 0.00 | 0.05 | 0.03 | 73 | 1018.7 |
| 20260831214517 | 25 | 135 | 3.2 | 8.0 | 0.00 | 0.05 | 0.03 | 72 | 1018.7 |
| 20260831214017 | 25 | 135 | 3.2 | 8.0 | 0.00 | 0.05 | 0.03 | 72 | 1018.9 |
| 20260831213516 | 25 | 135 | 3.2 | 6.4 | 0.00 | 0.05 | 0.03 | 72 | 1018.8 |
| 20260831213016 | 25 | 135 | 1.6 | 6.4 | 0.00 | 0.05 | 0.03 | 72 | 1018.8 |
| 20260831212516 | 25 | 135 | 1.6 | 6.4 | 0.00 | 0.05 | 0.03 | 71 | 1018.9 |
| 20260831212017 | 25 | 135 | 1.6 | 6.4 | 0.00 | 0.05 | 0.03 | 71 | 1018.9 |
| 20260831211517 | 25 | 248 | 1.6 | 8.0 | 0.00 | 0.05 | 0.03 | 71 | 1019.0 |
| 20260831211018 | 25 | 135 | 3.2 | 9.7 | 0.00 | 0.05 | 0.03 | 71 | 1019.0 |
| 20260831210516 | 25 | 225 | 3.2 | 14.5 | 0.00 | 0.05 | 0.03 | 71 | 1019.0 |
| 20260831210017 | 25 | 225 | 4.8 | 14.5 | 0.00 | 0.05 | 0.03 | 71 | 1019.0 |
| 20260831205516 | 25 | 158 | 1.6 | 8.0 | 0.00 | 0.05 | 0.03 | 72 | 1018.9 |
| 20260831205016 | 25 | 113 | 4.8 | 11.3 | 0.00 | 0.05 | 0.03 | 71 | 1018.9 |
| 20260831204516 | 25 | 135 | 3.2 | 8.0 | 0.00 | 0.05 | 0.03 | 71 | 1018.8 |
| 20260831204016 | 25 | 248 | 1.6 | 6.4 | 0.00 | 0.05 | 0.03 | 71 | 1018.9 |
| 20260831203517 | 25 | 203 | 3.2 | 9.7 | 0.00 | 0.05 | 0.03 | 71 | 1019.0 |
| 20260831203016 | 25 | 135 | 3.2 | 12.9 | 0.00 | 0.05 | 0.03 | 71 | 1019.0 |